Location: Corralito
(14.1667°N, 87.1833°W)
Time: 22:57:43
(UTC+00:00)

CZ-4B R/B - Pass Details

Date: 07 June 2020
Orbit: 487 x 652 km, 97.9° (Epoch: 11 July)

Event Time Altitude Azimuth Distance (km) Brightness Sun altitude
Rises 10:09:34 0° 22° (NNE) 2,548 7.1 -16.0°
Reaches altitude 10° 10:11:42 10° 29° (NNE) 1,666 6.2 -15.6°
Maximum altitude 10:15:04 41° 101° (E) 722 3.8 -14.9°
Drops below altitude 10° 10:18:29 10° 172° (S) 1,688 5.1 -14.1°
Enters shadow 10:20:15 - 178° (S) 2,414 5.8 -13.8°
